This is the latest recevied weather packets stored in our database for station/object JQ1YUX-13. If no packets are shown the sender has not sent any weather packets the latest 10 day(s).
| Time | Temp. | Humidity | Pressure | Rain* | Wind** | Luminosity | Snow |
|---|---|---|---|---|---|---|---|
| 1777257785 | 17.22° C | 90% | 1003.4 hPa | 0 mm | - | - | - |
| 1777256886 | 16.11° C | 91% | 1003.7 hPa | 0 mm | - | - | - |
| 1777255984 | 16.11° C | 90% | 1003.7 hPa | 0 mm | - | - | - |
| 1777255085 | 15° C | 89% | 1003.7 hPa | 0 mm | - | - | - |
| 1777254184 | 14.44° C | 89% | 1003.7 hPa | 0.51 mm | - | - | - |
| 1777253285 | 13.89° C | 89% | 1003.6 hPa | 1.78 mm | - | - | - |
| 1777252385 | 13.33° C | 89% | 1002.8 hPa | 2.79 mm | - | - | - |
| 1777251486 | 13.33° C | 89% | 1003.6 hPa | 3.3 mm | - | - | - |
| 1777250584 | 13.33° C | 89% | 1004.6 hPa | 3.3 mm | - | - | - |
| 1777249684 | 13.33° C | 89% | 1004.4 hPa | 2.79 mm | - | - | - |
| 1777248785 | 13.33° C | 89% | 1005 hPa | 2.54 mm | - | - | - |
| 1777247886 | 13.89° C | 89% | 1005.4 hPa | 2.54 mm | - | - | - |
| 1777246984 | 13.89° C | 89% | 1005.2 hPa | 2.29 mm | - | - | - |
| 1777246085 | 13.89° C | 89% | 1005 hPa | 2.29 mm | - | - | - |
| 1777245185 | 13.89° C | 89% | 1005.4 hPa | 2.54 mm | - | - | - |
| 1777244285 | 13.89° C | 89% | 1005.6 hPa | 3.81 mm | - | - | - |
| 1777243386 | 13.89° C | 89% | 1005.7 hPa | 4.32 mm | - | - | - |
| 1777242484 | 13.89° C | 89% | 1006.1 hPa | 4.57 mm | - | - | - |
| 1777241585 | 13.89° C | 89% | 1006.6 hPa | 4.83 mm | - | - | - |
| 1777240685 | 14.44° C | 89% | 1006.4 hPa | 4.57 mm | - | - | - |
| 1777239786 | 14.44° C | 89% | 1006.6 hPa | 5.33 mm | - | - | - |
| 1777238886 | 14.44° C | 89% | 1007 hPa | 6.35 mm | - | - | - |
| 1777237984 | 15° C | 90% | 1006.9 hPa | 8.89 mm | - | - | - |
| 1777237085 | 15° C | 90% | 1007.6 hPa | 10.92 mm | - | - | - |
| 1777236185 | 15° C | 90% | 1007.7 hPa | 11.68 mm | - | - | - |
* Rain latest hour (hover to see other rain measurements)
** Current wind speed in m/s (hover to see current wind gust speed)